Flag Weather past 2 weeks in Jacksonville, Florida, U.S.A.

Now
44 °F

Passing clouds.


Feels Like: 43 °F
Forecast: 39 / 64 °F
Wind: 3 mph from Northwest

Location: Jacksonville Naval Air Station

Current Time: Nov 29, 2014 at 3:06:53 AM

Latest Report: Nov 29, 2014 at 1:53 AM


Visibility: 8 mi

Pressure: 30.29 "Hg

Humidity: 79%

Dew point: 38 °F

Location of JacksonvilleLocation

Historic Weather in Jacksonville — Graph

°F

Jacksonville temperature yesterday

Maximum temperature yesterday: 55 °F (at 1:53 PM)
Minimum temperature yesterday: 43 °F (at 5:53 AM)
Average temperature yesterday: 49 °F

Past Weeks' High & Low Weather Summary

 TemperatureHumidityPressure
High86 °F (Nov 24, 12:53 PM)91% (Nov 24, 6:53 AM)30.45 "Hg (Nov 24, 6:53 AM)
Low35 °F (Nov 20, 6:53 AM)13% (Nov 20, 2:53 PM)29.82 "Hg (Nov 17, 3:53 PM)
Average60 °F64%30.15 "Hg
* Reported Nov 14 1:53 AM — Nov 29 1:53 AM, Jacksonville, Weather by CustomWeather, © 2014

Note: Actual official high and low records may vary slightly from our data, if they occured in-between our weather recording intervals... More about our weather records

Advertising

Jacksonville weather history for previous 24 hours

 ConditionsComfort  
Time TempWeatherWind HumidityBarometerVisibility
1:53 AM
Nov 29
44 °FPassing clouds.3 mph79%30.29 "Hg8 mi
12:53 AM45 °FPassing clouds.3 mph76%30.31 "Hg10 mi
11:53 PM
Nov 28
46 °FClear.No wind73%30.32 "Hg10 mi
10:53 PM51 °FClear.6 mph61%30.32 "Hg10 mi
9:53 PM51 °FClear.7 mph61%30.32 "Hg10 mi
8:53 PM51 °FClear.8 mph61%30.33 "Hg10 mi
7:53 PM51 °FClear.7 mph61%30.32 "Hg10 mi
6:53 PM51 °FClear.8 mph59%30.32 "Hg10 mi
5:53 PM52 °FClear.9 mph55%30.31 "Hg10 mi
4:53 PM54 °FSunny.9 mph51%30.29 "Hg10 mi
3:53 PM55 °FSunny.9 mph47%30.29 "Hg10 mi
2:53 PM55 °FSunny.10 mph47%30.29 "Hg10 mi
1:53 PM55 °FSunny.14 mph44%30.31 "Hg10 mi
12:53 PM53 °FSunny.7 mph48%30.33 "Hg10 mi
11:53 AM52 °FSunny.10 mph53%30.35 "Hg10 mi
10:53 AM49 °FSunny.12 mph55%30.38 "Hg10 mi
9:53 AM47 °FSunny.12 mph54%30.37 "Hg10 mi
8:53 AM45 °FSunny.14 mph56%30.36 "Hg10 mi
7:53 AM43 °FSunny.14 mph60%30.35 "Hg10 mi
6:53 AM43 °FClear.22 mph60%30.33 "Hg10 mi
5:53 AM43 °FClear.17 mph62%30.32 "Hg10 mi
4:53 AM44 °FClear.17 mph60%30.31 "Hg10 mi
3:53 AM44 °FClear.15 mph60%30.32 "Hg10 mi
Weather by CustomWeather, © 2014

See weather overviewHow to use our weather pages